GFSNIL_850_temp_102.txt.gz
Temp
10 10 10 11 10 10 9 10 9 9 8 8 8 9 11 9 10 11 11 11 12 11
10 10 10 10 10 9 9 9 8 8 8 9 9 10 9 10 10 10 10 11 11 10
9 9 10 9 10 10 10 9 9 9 9 9 10 9 10 11 11 11 10 10 11 10
9 9 9 9 10 10 10 10 10 10 10 10 10 10 10 11 11 10 10 10 10 10
10 10 10 9 10 10 10 10 10 10 10 10 10 10 11 11 10 10 9 10 9 9
9 10 10 10 9 10 10 10 9 9 10 10 10 10 10 10 10 10 9 9 9 9
10 10 10 10 10 10 10 10 10 9 10 10 10 9 9 9 9 10 10 9 9 9
11 10 10 10 10 10 10 10 10 10 10 9 9 9 9 9 9 9 9 9 9 9
11 11 10 10 10 10 10 10 10 9 9 9 9 9 9 9 9 10 9 9 9 8
11 11 11 10 10 10 10 10 10 10 9 9 9 9 9 9 9 8 8 8 7 5
12 11 11 11 10 10 10 9 9 9 9 9 8 8 8 8 8 8 6 4 3 3
12 12 12 11 10 10 10 9 9 8 8 7 6 6 6 6 5 3 3 1 1 0
13 12 11 11 10 9 8 8 7 7 5 4 4 2 2 2 2 2 0 -0 -1 -1
11 11 9 9 8 7 7 6 4 4 2 1 0 -0 -0 -1 -0 -0 -1 -1 -2 -4

GFSNIL_850_temp_105.txt.gz
Temp
10 10 10 10 10 10 10 10 10 10 9 8 9 9 9 9 9 9 9 10 11 11
10 10 10 11 10 10 11 10 10 9 9 9 9 8 8 9 9 9 9 10 10 10
10 10 10 10 10 10 10 10 10 9 10 9 8 8 8 9 9 9 9 9 10 10
10 10 10 10 10 10 10 10 9 9 9 9 9 8 9 9 9 9 9 9 10 10
10 10 9 9 10 10 10 9 9 9 9 9 9 9 9 9 10 10 9 10 10 10
9 10 10 10 9 10 9 9 9 9 9 9 9 9 10 10 10 10 10 10 10 10
10 10 10 10 10 9 10 10 10 10 10 10 10 10 10 10 10 10 9 9 9 9
10 10 10 10 10 10 10 10 10 9 9 10 10 9 9 9 9 9 9 9 9 9
11 10 10 10 10 9 9 9 9 9 9 9 9 9 9 9 9 9 9 9 8 8
11 11 10 10 10 10 10 10 10 10 9 9 9 9 9 9 9 8 8 8 7 5
11 11 10 10 10 10 10 10 9 9 9 9 9 9 9 8 8 8 7 5 2 0
11 11 10 10 10 10 9 9 8 8 8 7 7 7 7 7 6 4 2 1 -0 0
11 11 11 11 10 9 8 8 7 7 5 4 4 2 2 2 2 2 0 -1 -1 -2
12 11 11 10 9 8 8 7 5 4 2 2 1 -0 -1 -1 -0 -0 -2 -3 -4 -5

GFSNIL_850_temp_108.txt.gz
Temp
10 10 10 11 10 10 10 10 10 10 10 10 10 10 10 9 9 9 9 9 9 9
11 11 11 10 10 10 10 10 10 10 9 10 10 11 10 9 9 9 9 9 9 9
10 10 11 10 10 10 10 10 10 10 10 10 9 8 8 8 8 8 9 9 9 10
10 10 10 11 10 10 10 10 9 9 9 9 9 9 10 9 8 8 9 9 9 9
10 10 10 10 10 10 10 10 10 10 9 10 10 10 9 8 8 9 9 9 9 9
9 10 9 9 10 10 10 10 10 10 10 10 10 10 9 9 8 9 9 9 9 9
10 10 10 10 10 10 9 9 9 9 9 9 9 9 9 9 9 9 8 8 8 9
10 10 10 10 10 10 10 10 10 10 9 9 9 9 9 9 9 8 8 8 8 8
11 9 10 9 9 9 9 9 9 9 9 8 8 8 9 8 8 8 8 8 8 8
11 10 10 9 9 9 8 8 8 8 8 9 9 9 9 8 8 8 8 8 8 5
11 10 9 9 9 9 9 9 9 9 9 9 9 9 9 9 8 8 7 5 3 2
12 10 9 9 9 9 9 9 9 9 9 9 8 8 8 8 8 6 3 1 -1 -0
11 11 10 9 9 9 9 9 8 8 7 7 7 6 6 6 6 4 1 -1 -2 -3
10 11 10 10 9 9 8 8 7 6 5 4 3 1 1 0 0 0 -1 -2 -3 -4

GFSNIL_850_temp_111.txt.gz
Temp
10 10 10 9 10 10 10 10 11 11 10 10 11 11 10 10 11 10 10 10 10 9
10 10 10 10 10 11 10 10 10 11 11 10 10 10 10 9 10 10 8 9 8 8
10 9 10 10 10 10 10 10 10 10 10 10 10 10 10 10 10 9 9 8 8 9
9 10 9 10 10 10 10 10 9 10 10 10 10 10 10 10 9 9 8 8 8 8
10 10 9 10 10 10 9 10 10 10 9 10 10 10 10 10 9 8 9 9 8 8
9 10 10 10 9 10 10 9 9 9 9 9 9 9 10 9 10 10 9 8 7 8
9 10 10 9 9 9 9 9 9 9 9 8 8 9 9 9 9 8 8 8 8 8
10 10 10 9 9 9 9 9 9 9 9 9 9 9 9 9 9 8 8 8 8 8
10 10 10 10 9 9 9 9 9 8 9 9 9 9 9 8 8 8 8 7 8 7
9 9 10 10 9 9 9 9 8 8 8 8 8 8 8 8 8 8 8 8 7 6
9 9 9 9 9 8 8 9 8 8 8 8 9 9 9 8 8 8 8 7 6 5
10 9 8 9 9 9 9 8 8 8 8 8 8 8 8 8 8 8 7 4 2 1
10 10 9 9 8 9 8 8 8 7 8 8 8 8 8 8 7 6 3 -1 -2 -2
10 9 9 9 9 9 8 8 8 7 7 6 5 5 4 4 4 1 -2 -3 -4 -4

GFSNIL_850_temp_114.txt.gz
Temp
11 10 10 10 11 11 11 11 11 10 10 11 11 11 11 11 11 11 11 11 11 10
10 9 9 9 10 10 10 10 10 11 11 11 10 11 11 10 11 11 10 10 9 9
9 9 9 9 10 9 10 10 10 10 10 10 11 10 10 10 10 10 9 9 9 9
9 9 9 9 9 9 10 10 10 10 10 10 10 10 10 10 10 9 9 9 9 9
9 9 10 9 10 10 9 10 10 10 10 10 10 10 10 10 10 9 9 9 9 8
9 9 9 9 10 9 9 9 10 10 9 10 10 10 10 10 10 9 9 9 8 8
8 9 9 9 9 9 9 9 9 9 9 9 10 9 9 10 9 9 9 8 8 8
8 8 8 8 8 9 9 9 9 8 8 8 9 9 9 9 9 9 9 8 7 8
8 8 8 8 8 8 8 9 9 9 9 8 8 8 9 9 9 8 8 8 8 8
9 9 9 8 8 9 8 8 8 8 8 8 8 8 8 8 8 8 8 8 7 7
9 9 9 8 9 8 8 7 7 7 7 7 8 8 8 8 8 7 7 7 6 6
10 9 9 8 8 8 8 8 8 7 7 8 8 8 8 8 8 8 7 5 3 2
10 11 10 9 8 8 8 8 7 7 7 7 7 8 8 8 8 7 5 2 -0 -1
9 10 9 8 8 8 8 8 7 7 7 6 6 7 7 6 6 6 3 -1 -3 -4

GFSNIL_850_temp_117.txt.gz
Temp
12 11 11 11 11 10 11 11 11 11 11 10 10 11 11 11 11 11 11 11 11 11
11 10 10 11 10 10 11 10 11 11 11 11 11 11 11 10 11 11 11 11 11 10
10 10 10 10 10 10 10 10 11 10 11 11 10 11 11 10 10 11 11 11 11 10
9 9 9 9 9 9 10 10 10 10 10 10 11 10 10 10 10 10 11 11 10 9
9 9 9 9 9 9 9 9 10 10 10 10 10 10 11 10 10 10 9 9 8 8
9 10 9 9 9 9 9 10 10 10 10 10 10 10 10 10 10 10 9 10 9 8
9 10 9 9 9 9 9 9 10 10 9 9 9 10 10 9 10 9 9 8 8 8
10 10 9 9 9 9 9 9 9 9 9 9 9 9 9 9 9 9 9 8 8 8
9 9 9 9 9 9 9 8 9 9 8 8 8 9 9 8 9 9 9 9 8 8
9 8 9 9 8 8 8 8 8 8 8 8 8 8 8 8 9 8 8 9 8 8
8 9 8 8 8 8 8 8 8 8 8 8 8 8 8 8 8 8 8 7 7 7
9 8 8 8 8 8 8 8 7 7 7 8 8 7 8 8 8 7 7 6 5 4
8 8 8 8 8 8 8 8 7 7 7 7 8 7 7 7 7 7 6 4 2 0
8 8 8 8 8 8 8 8 7 7 7 7 7 7 7 6 6 7 5 2 -1 -3

GFSNIL_850_temp_120.txt.gz
Temp
13 13 12 11 11 11 11 11 11 10 10 10 10 10 10 10 10 10 10 10 10 11
12 11 11 11 11 11 12 11 10 10 10 10 9 10 10 10 10 10 10 10 10 10
12 11 10 11 11 11 11 10 11 10 10 10 10 9 9 10 10 10 11 10 9 9
11 10 10 11 10 11 11 11 11 10 10 10 10 10 10 10 10 10 10 10 9 9
11 10 9 10 10 10 10 10 10 10 10 10 10 10 10 10 9 10 8 10 11 10
10 10 9 9 9 10 10 10 10 10 10 10 9 9 10 10 10 10 10 10 10 10
10 9 10 9 10 9 9 9 9 9 10 9 10 9 10 10 10 10 10 9 9 8
9 9 9 9 9 9 9 9 9 9 10 10 10 9 9 9 9 9 8 8 8 7
9 9 9 9 9 9 9 9 9 9 9 9 9 9 9 9 9 8 8 8 7 7
9 9 9 9 9 9 9 9 9 9 9 9 9 9 9 9 9 8 8 8 8 8
9 9 8 9 9 9 9 8 9 9 8 8 8 8 8 8 8 8 8 7 7 8
9 9 8 9 9 9 9 8 8 8 8 8 8 8 8 8 8 7 7 6 7 7
9 8 8 9 8 8 8 8 8 8 8 8 8 7 7 8 8 7 7 5 5 4
9 8 8 8 9 8 8 8 8 7 7 7 8 7 7 7 8 8 7 5 3 1

GFSNIL_850_temp_123.txt.gz
Temp
12 13 13 13 12 12 12 12 12 12 12 12 11 10 10 10 10 9 10 11 11 12
12 12 13 12 11 12 12 12 12 12 11 11 10 10 9 9 9 9 9 10 10 11
12 12 12 12 12 11 11 11 11 11 11 10 10 10 9 9 9 9 9 9 10 11
11 11 12 12 12 11 12 11 11 10 11 10 10 9 9 9 9 9 9 9 10 10
11 11 11 11 11 11 11 11 11 11 10 10 10 10 10 9 9 9 9 10 9 10
10 11 11 11 10 11 11 11 11 10 10 10 10 10 10 10 9 9 9 9 9 9
10 11 11 10 10 10 10 10 10 10 10 10 10 10 10 10 9 9 9 9 9 8
10 10 10 10 10 10 10 10 10 10 10 10 10 10 10 10 10 9 9 9 9 8
9 10 10 10 10 10 9 10 9 9 9 9 10 10 9 9 9 9 9 9 8 8
9 10 10 10 9 9 9 9 10 9 9 9 9 10 9 10 9 9 8 9 9 8
9 10 10 10 9 9 9 9 9 9 9 9 9 9 9 9 9 8 8 8 7 7
9 10 10 9 9 9 9 9 9 9 8 9 9 8 8 9 8 8 7 7 6 6
9 9 9 9 9 9 9 9 8 8 9 8 9 8 8 8 8 7 7 5 5 5
8 9 9 9 9 9 9 9 8 8 8 8 8 8 7 7 8 8 6 5 4 3

GFSNIL_850_temp_126.txt.gz
Temp
12 12 13 13 13 12 12 12 12 11 11 12 11 11 10 10 10 10 10 10 10 11
12 12 12 13 13 13 13 12 12 12 11 11 11 11 11 10 10 10 10 9 10 10
11 12 12 12 12 13 12 12 12 12 12 12 11 11 10 10 10 10 10 9 9 10
11 12 12 12 12 13 12 12 11 11 12 11 11 11 10 9 9 9 10 9 9 10
10 11 11 12 12 11 12 12 11 11 11 11 11 11 10 9 9 9 9 9 9 9
10 10 11 11 12 12 11 12 11 11 11 11 10 11 10 10 9 9 9 9 9 9
9 10 11 11 11 11 11 12 11 11 11 11 10 11 10 10 10 9 9 9 9 9
9 9 10 10 11 11 10 11 10 10 10 10 10 10 10 10 10 9 9 9 9 9
9 9 10 10 11 10 10 11 10 10 10 9 10 10 10 10 9 9 9 9 9 8
8 9 9 10 10 10 9 10 9 9 9 9 9 10 10 9 9 9 9 8 9 8
7 8 9 9 10 10 9 9 10 9 9 9 10 9 9 9 9 9 9 8 9 8
7 8 8 9 10 10 9 9 9 9 9 9 9 9 8 8 8 9 8 7 7 8
6 7 8 8 10 9 9 9 9 9 8 9 9 7 8 8 8 8 7 6 6 6
7 6 6 7 9 9 9 9 8 8 8 8 8 7 7 7 8 7 7 6 5 4

GFSNIL_850_temp_129.txt.gz
Temp
12 12 12 13 13 13 13 12 12 11 12 12 11 11 11 11 11 11 11 10 10 10
10 11 12 12 12 12 13 13 12 11 11 11 11 12 11 11 11 11 10 11 10 10
10 11 11 12 12 12 12 12 12 11 11 11 11 11 11 11 10 10 10 10 10 10
11 11 10 11 12 12 12 12 12 11 11 11 11 11 11 11 11 9 10 10 10 10
10 11 10 10 11 12 12 12 12 11 11 12 12 12 11 11 10 10 9 10 9 9
10 10 10 11 10 11 12 12 12 11 11 12 12 12 11 11 10 10 10 9 9 9
9 9 9 10 10 11 11 11 12 11 11 12 12 11 11 10 10 10 9 9 9 10
9 9 9 9 10 10 11 11 11 11 11 12 11 11 11 10 10 10 10 9 9 9
8 8 9 9 10 10 10 11 11 11 10 11 11 11 11 10 10 10 10 9 9 9
7 8 8 9 9 9 10 11 10 10 10 10 10 10 10 10 10 9 9 9 9 9
5 6 8 8 8 9 10 10 10 10 10 10 10 9 9 9 9 9 9 9 9 8
4 5 7 8 7 8 10 10 9 10 10 10 9 9 9 9 9 9 9 9 9 8
3 4 6 7 7 7 8 10 9 9 9 9 9 9 8 8 8 8 9 8 8 6
3 3 4 6 6 7 7 9 9 9 9 8 8 9 8 8 8 8 8 7 5 4

GFSNIL_850_temp_132.txt.gz
Temp
11 11 11 11 12 13 13 13 13 13 12 13 13 12 11 11 11 11 11 11 11 11
12 11 11 11 11 12 12 13 13 12 12 12 12 12 11 11 10 11 11 11 11 11
12 11 11 11 11 11 12 12 12 12 12 11 12 11 11 11 11 11 11 11 11 10
12 12 11 11 11 10 11 12 12 12 12 11 11 11 11 11 11 11 10 10 10 10
12 12 11 11 11 10 10 11 11 12 12 12 11 11 11 10 10 10 10 10 10 10
11 11 11 11 11 11 10 10 11 12 12 12 12 11 11 11 10 10 10 10 9 9
10 11 11 10 10 11 11 10 10 11 11 11 12 11 11 11 11 11 10 10 9 9
10 10 10 9 9 10 10 10 10 11 11 11 12 12 11 11 11 11 10 10 9 9
9 9 9 9 9 9 10 9 10 10 11 12 11 12 11 11 11 11 10 10 10 10
7 8 8 8 9 8 9 9 10 10 10 11 11 11 11 11 10 10 9 10 9 9
5 6 7 7 8 8 8 9 9 10 10 11 11 11 11 10 10 10 9 10 9 9
3 5 5 5 6 7 7 9 9 9 10 10 10 10 11 10 10 9 9 9 9 9
2 3 4 4 6 6 6 7 8 9 10 10 10 10 10 10 9 9 9 9 9 9
-0 1 2 4 5 6 6 6 7 8 7 9 9 10 9 9 9 9 9 8 8 8

GFSNIL_850_temp_138.txt.gz
Temp
13 14 14 14 14 14 14 14 14 13 13 13 13 13 13 13 13 13 13 13 13 13
11 12 12 13 12 11 11 12 12 12 13 12 12 12 13 12 13 13 13 13 13 13
11 11 12 12 12 11 11 11 11 12 12 12 12 12 12 12 12 12 12 13 13 12
11 11 11 11 11 11 10 10 10 11 12 12 12 12 12 12 12 12 12 12 12 12
10 10 10 10 10 11 11 10 10 10 11 11 12 12 12 12 12 11 11 12 12 12
9 9 10 9 9 9 10 10 10 10 10 10 10 11 11 12 12 11 11 12 11 11
8 8 8 8 8 9 9 10 10 10 10 9 9 10 11 11 11 11 11 11 11 11
6 6 6 6 7 7 8 9 10 10 10 9 9 10 10 10 11 11 11 11 11 11
5 6 6 5 5 7 8 8 9 9 9 9 8 9 9 10 10 11 11 11 10 9
4 5 4 5 5 6 7 7 8 8 8 9 8 8 9 9 10 10 11 11 11 11
1 2 2 2 3 5 6 6 7 7 8 8 9 9 8 9 10 10 10 10 10 11
-1 -1 1 2 4 4 5 5 5 6 6 7 9 9 8 9 9 10 9 10 10 10
-2 -1 -1 1 2 3 3 3 5 6 5 6 8 7 7 8 9 9 9 10 10 10
-3 -3 -2 -1 -0 0 1 2 3 4 5 5 6 5 5 7 8 9 9 9 9 10

GFSNIL_850_temp_144.txt.gz
Temp
12 12 11 12 11 11 14 15 15 15 12 11 12 13 12 13 13 13 12 12 11 12
9 10 11 11 12 12 13 14 15 14 11 11 12 12 12 12 12 12 12 11 12 12
4 7 8 10 13 13 12 14 12 12 12 11 11 11 12 11 12 12 12 11 12 11
2 5 8 9 10 10 11 10 11 11 11 11 10 11 11 11 11 11 12 12 12 11
-0 1 2 5 8 10 10 11 11 11 11 11 10 10 10 11 11 11 11 12 11 11
2 2 1 3 7 8 9 10 10 10 10 10 10 10 9 10 10 10 11 11 11 11
1 2 3 0 6 6 9 9 9 9 9 9 10 10 8 9 9 10 10 11 11 11
-1 4 4 4 6 7 8 8 8 9 9 10 10 8 9 10 10 10 10 10 10 10
0 1 1 4 5 5 6 7 7 7 8 9 8 9 8 8 10 10 9 10 10 10
-3 0 2 3 3 4 5 5 5 6 7 8 8 8 8 9 9 9 9 9 9 10
-3 -1 1 1 1 2 4 4 5 5 6 7 7 7 7 8 8 9 9 9 9 9
-8 -5 -2 -0 -0 0 0 1 4 4 5 5 5 5 6 6 7 8 8 9 8 8
-8 -7 -6 -3 -2 -3 -0 1 2 3 3 3 4 4 4 4 5 7 7 8 9 8
-8 -8 -9 -8 -7 -6 -5 -5 -3 -1 0 1 2 2 3 3 3 4 6 6 8 7

GFSNIL_850_temp_147.txt.gz
Temp
8 9 11 13 13 13 12 13 13 12 12 12 12 13 10 14 13 12 13 12 12 12
5 6 7 10 12 12 11 11 12 12 11 12 13 10 12 13 13 13 12 13 13 13
2 3 3 5 8 10 11 11 11 11 11 13 13 13 12 12 13 12 13 13 12 11
2 2 1 2 4 6 8 9 9 10 11 11 10 11 12 12 11 11 11 11 11 11
-1 1 1 1 2 3 4 6 6 8 10 11 11 10 10 10 10 11 11 11 11 11
-2 -0 -0 -0 0 1 2 3 4 5 9 10 10 8 9 9 9 10 10 10 11 10
-3 0 1 0 2 0 1 2 3 4 5 6 7 7 7 9 9 9 10 10 10 10
-5 -3 -1 1 2 3 2 1 2 2 4 5 7 5 8 9 9 9 9 10 9 10
-6 -5 -5 -4 -3 -1 -2 -1 1 -0 2 4 2 5 5 7 8 9 9 10 10 9
-6 -6 -6 -5 -5 -4 -4 -2 3 1 3 2 0 4 5 6 8 9 8 9 9 8
-7 -6 -6 -5 -5 -5 -3 2 3 -1 1 5 2 4 4 6 6 7 7 7 7 7
-7 -7 -7 -6 -6 -5 -5 -4 -3 -2 1 4 2 -2 2 4 5 6 6 6 7 7
-7 -7 -7 -7 -6 -6 -5 -5 -5 -5 -4 -4 -4 -2 1 1 2 4 5 7 7 7
-8 -7 -7 -7 -7 -7 -7 -7 -6 -6 -6 -5 -5 -4 -2 -1 -1 -1 3 4 6 7

GFSNIL_850_temp_150.txt.gz
Temp
2 3 4 5 7 9 11 12 13 14 14 13 13 13 13 12 12 12 12 10 11 11
0 2 3 4 4 8 10 11 12 14 14 13 13 12 12 12 12 11 11 10 11 11
-1 -0 2 2 3 6 6 9 11 11 12 12 11 11 10 11 12 13 12 12 11 11
-1 -1 -0 0 2 4 4 5 7 10 10 10 10 11 10 11 10 11 12 11 11 11
-4 -3 -1 -1 1 4 2 3 5 6 8 8 9 10 10 10 10 10 10 11 11 10
-5 -4 -3 -2 -1 1 2 0 2 4 5 6 6 8 9 9 9 10 10 10 10 11
-5 -5 -4 -3 -2 -1 1 -0 1 2 3 4 4 5 6 8 8 8 9 10 10 10
-6 -6 -5 -4 -2 -1 -1 -0 -1 1 2 2 2 3 4 6 7 9 9 9 9 10
-6 -6 -5 -5 -4 -2 -0 -1 0 2 -1 0 0 -0 3 5 7 8 8 9 9 8
-6 -6 -6 -6 -5 -5 -3 -1 1 2 -2 -1 -2 -2 1 4 5 6 6 7 7 8
-7 -7 -6 -6 -6 -6 -5 -5 -4 -4 -4 -4 -3 -4 -2 3 3 4 5 5 5 6
-7 -7 -7 -7 -7 -6 -6 -6 -6 -5 -5 -5 -4 -5 -1 0 2 3 5 4 4 4
-8 -8 -8 -8 -7 -7 -7 -7 -7 -6 -6 -6 -5 -5 -2 -1 -2 -3 1 3 2 3
-8 -8 -8 -8 -8 -8 -8 -7 -7 -7 -7 -7 -7 -7 -6 -5 -4 -3 -2 -1 0 1

GFSNIL_850_temp_153.txt.gz
Temp
-1 -1 -1 -0 1 2 3 5 7 8 11 13 13 13 13 13 14 14 14 13 13 12
-2 -2 -1 -0 -0 1 2 3 7 7 9 12 13 13 13 13 13 14 14 13 12 12
-4 -3 -2 -2 -1 0 1 2 6 6 9 10 12 12 12 13 13 13 12 11 11 12
-5 -4 -4 -3 -2 -1 0 1 3 5 7 9 10 11 11 11 11 11 10 11 12 10
-4 -5 -5 -4 -3 -2 -1 0 2 4 3 6 6 9 9 9 9 10 9 10 9 10
-4 -5 -5 -5 -4 -3 -2 -1 1 2 1 2 4 5 8 9 9 8 8 9 9 9
-5 -5 -6 -5 -5 -4 -3 -2 -1 -0 0 -0 0 1 5 7 7 8 8 9 9 9
-7 -6 -6 -6 -6 -5 -4 -3 -3 -1 -0 -2 0 0 4 5 6 7 7 7 8 8
-7 -7 -6 -6 -5 -6 -5 -5 -4 -3 -1 0 -2 -2 -0 4 5 5 4 5 7 7
-7 -7 -6 -6 -6 -6 -6 -6 -5 -5 -4 -3 -3 -1 -2 1 3 4 3 2 3 6
-7 -7 -7 -7 -7 -7 -7 -6 -5 -5 -5 -5 -5 -5 -2 -2 -2 1 1 2 3 4
-8 -8 -8 -8 -8 -8 -8 -7 -7 -7 -6 -6 -7 -6 -4 -4 -3 1 1 1 1 2
-9 -9 -9 -9 -8 -9 -8 -8 -7 -7 -8 -8 -7 -7 -8 -7 -4 -3 -1 0 2 1
-9 -9 -9 -9 -9 -9 -9 -9 -9 -8 -8 -7 -7 -8 -9 -7 -6 -6 -3 -1 -1 0

GFSNIL_850_temp_156.txt.gz
Temp
0 1 -0 -2 -2 -1 -1 1 1 2 3 5 6 8 11 12 13 13 13 13 13 13
-1 -1 -2 -2 -1 -3 -2 -1 -0 1 3 4 6 7 9 12 12 12 13 12 13 14
-3 -2 -4 -4 -3 -3 -3 -2 -1 1 2 3 6 7 8 10 12 12 13 13 13 13
-4 -4 -4 -5 -4 -4 -3 -2 -1 -1 -0 1 4 6 8 9 11 12 13 12 13 12
-5 -5 -5 -5 -4 -5 -4 -3 -2 -2 -1 -0 2 2 3 8 8 10 10 10 11 11
-6 -6 -6 -5 -5 -5 -5 -4 -3 -3 -2 -1 0 1 1 3 6 8 9 9 9 9
-6 -7 -7 -6 -6 -6 -5 -5 -4 -4 -4 -3 -2 -0 0 2 2 2 5 7 7 8
-6 -6 -6 -7 -7 -7 -6 -6 -5 -4 -4 -4 -4 -3 -1 -0 -0 -1 2 3 5 6
-6 -6 -6 -6 -7 -7 -7 -7 -6 -5 -6 -6 -5 -5 -3 -1 -0 -1 -0 1 1 4
-7 -8 -8 -7 -7 -7 -7 -7 -7 -7 -7 -6 -6 -6 -4 -2 -0 -2 -1 -1 0 2
-8 -9 -9 -8 -8 -8 -8 -8 -8 -7 -7 -7 -7 -7 -5 -2 -1 -2 -3 2 2 -1
-9 -9 -9 -9 -8 -9 -9 -8 -8 -8 -7 -8 -8 -8 -6 -3 -3 -3 -2 -2 -4 -3
-9 -10 -9 -9 -9 -9 -9 -9 -9 -9 -9 -9 -8 -8 -7 -7 -6 -4 -4 -3 -2 -3
-10 -10 -10 -10 -10 -10 -10 -10 -9 -9 -9 -9 -9 -9 -11 -11 -9 -9 -7 -5 -4 -4

GFSNIL_850_temp_159.txt.gz
Temp
0 0 0 -1 -0 -1 -3 -3 -3 -2 0 1 0 1 2 4 6 7 8 10 10 11
-1 -1 -1 -2 -2 -3 -4 -4 -3 -3 -1 -0 -0 -0 1 3 5 6 7 9 12 12
-0 -1 -2 -2 -3 -3 -4 -4 -4 -3 -2 -1 -1 -1 0 2 4 6 8 8 10 12
-2 -3 -3 -4 -4 -5 -5 -4 -4 -4 -3 -3 -3 -2 -0 1 2 6 8 9 10 12
-3 -4 -4 -5 -7 -6 -6 -5 -5 -4 -4 -4 -3 -2 -1 1 1 3 6 8 9 11
-4 -4 -5 -6 -7 -7 -7 -6 -5 -5 -5 -5 -4 -3 -2 -1 -0 1 1 7 8 9
-5 -5 -6 -7 -7 -8 -8 -7 -6 -6 -6 -6 -6 -5 -4 -3 -2 -0 -0 1 4 8
-6 -6 -7 -7 -7 -7 -8 -7 -7 -7 -7 -7 -7 -7 -5 -4 -4 -2 -0 -1 -2 1
-7 -8 -8 -8 -7 -7 -8 -8 -8 -8 -8 -7 -8 -8 -7 -6 -5 -4 -2 -1 -2 -1
-8 -8 -9 -8 -8 -8 -8 -8 -8 -9 -9 -9 -9 -8 -7 -7 -6 -5 -4 -3 -1 -2
-8 -9 -9 -9 -9 -8 -9 -9 -9 -9 -9 -9 -9 -9 -9 -8 -7 -7 -6 -5 -3 -1
-9 -9 -9 -9 -9 -9 -9 -10 -9 -9 -9 -9 -9 -9 -11 -10 -9 -7 -8 -5 -5 -4
-10 -10 -10 -10 -9 -10 -10 -10 -10 -10 -10 -10 -10 -10 -11 -11 -10 -9 -8 -8 -7 -6
-10 -10 -10 -10 -10 -10 -10 -10 -10 -11 -10 -10 -10 -10 -12 -12 -11 -11 -9 -8 -8 -7